Delta Virtual Airport Information Service

Houston George Bush Intercontinental Airport

ICAO: KIAH Country: United States
Latitude: 29.9844 Longitude: -95.3414
Latest Arrival : UAL1534 (1B) (KEWR-KIAH) Latest Departure : NKS488 (2) (KIAH-MMUN)


WX CaptureLIVE
Data provided by noaa.gov | Fetched at 08:29:17

METAR : KIAH 041253Z 27005KT 10SM FEW015 SCT065 BKN180 BKN250 28/23 A3001 RMK AO2 SLP159 CB AND SHRA DSNT S T02780228

TAF : KIAH 041120Z 0412/0518 VRB05KT P6SM FEW050 SCT140 FM042000 VRB05KT P6SM VCTS SCT050CB FM050100 VRB04KT P6SM SCT070 SCT250


Runway Data for KIAH
Data provided by openaviationdata.com

Runway ID Mag Var Hdg Length Elevation Surface ILS Freq ILS Id ILS Slope
08L 5 84° 8992 ft 97 ft Concrete 111.55 IBZU 3
08R 5 84° 9394 ft 97 ft Concrete 109.7 IIAH 3
9 5 84° 9991 ft 97 ft Asphalt 110.9 IUYO 3
15L 5 147° 12022 ft 97 ft Concrete 111.9 IHSQ 2
15R 5 147° 10016 ft 97 ft Concrete 111.15 ILKM 3
26L 5 264° 9394 ft 97 ft Concrete 109.7 IJYV 3
26R 5 264° 8992 ft 97 ft Concrete 111.55 IOND 3
27 5 264° 9991 ft 97 ft Asphalt 110.9 IGHI 3
33L 5 327° 10016 ft 97 ft Concrete -- -- --
33R 5 327° 12022 ft 97 ft Concrete 111.9 ICDG 3

Houston George Bush Intercontinental Airport, United States
Use only for reference purposes



Not for navigational purposes.